contact:dominique.lefevre@mio.osupytheas.fr, maurice.libes@osupytheas.fr, didier.mallarino@osupytheas.fr
Project:EMSO http://www.emso-fr.org/EMSO-France
Depth: 2436.0 m
Title:EMSO Ligure Ouest : Data MII capteur AQUADOPP
Date,Latitude,Longitude,X_East,Y_North,Z_Up,Amplitude_X,Amplitude_Y,Amplitude_Z,Batterie,SoundSpeed,Heading,Pitch,Roll,Pressure,TIS,Speed,Direction
, degrees North, degrees East, m.s-1, m.s-1,m.s-1, 1, 1, 1, Volt, m.s-1, degree, degree, degree, dbar, degree_C, m.s-1, degree
2023-04-13T00:04:03,42.805,6.029,0.013,0.006,0.008,102.0,103.0,102.0,13.3,1505.2,325.1,-0.8,1.8,2471.41,13.28,0.014,65.2
2023-04-13T00:07:03,42.805,6.029,0.009,0.02,-0.025,103.0,105.0,102.0,13.4,1505.2,322.3,-0.8,1.8,2471.398,13.29,0.021,24.2
2023-04-13T00:10:03,42.805,6.029,0.012,-0.001,-0.029,103.0,102.0,102.0,13.3,1505.2,332.9,-0.8,1.8,2471.382,13.29,0.012,94.8
2023-04-13T00:13:03,42.805,6.029,-0.006,-0.008,-0.056,102.0,105.0,102.0,13.4,1505.2,331.0,-0.8,1.8,2471.391,13.29,0.01,216.9
2023-04-13T00:16:03,42.805,6.029,0.011,-0.019,-0.016,102.0,104.0,102.0,13.4,1505.2,335.5,-0.8,1.8,2471.362,13.29,0.021,149.9
2023-04-13T00:19:03,42.805,6.029,0.03,0.009,0.009,102.0,104.0,102.0,13.4,1505.2,320.4,-0.8,1.8,2471.395,13.29,0.031,73.3
2023-04-13T00:22:03,42.805,6.029,0.035,-0.008,-0.02,104.0,103.0,101.0,13.4,1505.2,319.7,-0.8,1.8,2471.41,13.29,0.035,102.9
2023-04-13T00:25:03,42.805,6.029,0.014,0.002,-0.012,105.0,105.0,102.0,13.4,1505.2,322.2,-0.8,1.8,2471.376,13.29,0.014,81.9
2023-04-13T00:28:03,42.805,6.029,0.004,-0.011,-0.022,106.0,103.0,101.0,13.3,1505.2,324.7,-0.8,1.8,2471.358,13.29,0.011,160.0
2023-04-13T00:31:03,42.805,6.029,0.009,0.002,0.007,104.0,104.0,103.0,13.3,1505.2,329.5,-0.7,1.8,2471.332,13.29,0.009,77.5
2023-04-13T00:34:03,42.805,6.029,0.03,0.008,0.005,105.0,104.0,102.0,13.4,1505.2,333.8,-0.7,1.8,2471.356,13.29,0.031,75.1
2023-04-13T00:37:02,42.805,6.029,0.014,0.002,0.01,103.0,104.0,102.0,13.4,1505.2,333.4,-0.8,1.8,2471.378,13.29,0.014,81.9
2023-04-13T00:40:03,42.805,6.029,0.02,-0.013,-0.018,105.0,104.0,102.0,13.4,1505.2,335.5,-0.8,1.8,2471.374,13.29,0.023,123.0
2023-04-13T00:43:02,42.805,6.029,0.037,0.002,-0.011,105.0,105.0,101.0,13.4,1505.2,332.9,-0.8,1.8,2471.371,13.29,0.037,86.9
2023-04-13T00:46:02,42.805,6.029,0.0,0.004,0.0,104.0,105.0,102.0,13.3,1505.2,325.1,-0.7,1.8,2471.383,13.29,0.004,0.0
2023-04-13T00:49:02,42.805,6.029,0.012,-0.003,0.005,105.0,105.0,103.0,13.4,1505.2,329.3,-0.8,1.8,2471.394,13.29,0.012,104.0
2023-04-13T00:52:02,42.805,6.029,0.02,0.0,-0.017,105.0,104.0,102.0,13.3,1505.2,332.2,-0.8,1.8,2471.343,13.29,0.02,90.0
2023-04-13T00:55:02,42.805,6.029,0.012,-0.014,-0.033,104.0,105.0,103.0,13.4,1505.2,325.8,-0.8,1.8,2471.369,13.29,0.018,139.4
2023-04-13T00:58:02,42.805,6.029,0.015,-0.006,-0.007,105.0,105.0,102.0,13.3,1505.2,322.2,-0.8,1.8,2471.387,13.29,0.016,111.8
2023-04-13T01:04:02,42.805,6.029,0.011,-0.015,-0.04,105.0,106.0,103.0,13.4,1505.2,334.9,-0.7,1.8,2471.416,13.29,0.018,143.7
2023-04-13T01:07:03,42.805,6.029,0.022,-0.001,-0.011,105.0,104.0,102.0,13.4,1505.2,318.5,-0.8,1.8,2471.413,13.29,0.022,92.6
2023-04-13T01:10:03,42.805,6.029,0.019,0.016,0.014,105.0,105.0,102.0,13.4,1505.2,332.1,-0.7,1.8,2471.424,13.29,0.024,49.9
2023-04-13T01:13:03,42.805,6.029,0.018,-0.031,-0.012,104.0,104.0,102.0,13.4,1505.2,338.2,-0.8,1.8,2471.415,13.29,0.035,149.9
2023-04-13T01:16:03,42.805,6.029,0.006,-0.007,0.004,104.0,104.0,103.0,13.4,1505.2,330.6,-0.8,1.8,2471.428,13.29,0.009,139.4
2023-04-13T01:19:03,42.805,6.029,0.03,-0.016,-0.025,104.0,105.0,102.0,13.4,1505.2,343.3,-0.8,1.8,2471.354,13.29,0.034,118.1
2023-04-13T01:22:02,42.805,6.029,0.002,-0.007,-0.006,105.0,104.0,102.0,13.3,1505.2,318.0,-0.8,1.8,2471.381,13.29,0.007,164.1
2023-04-13T01:25:03,42.805,6.029,0.024,-0.006,-0.009,105.0,104.0,102.0,13.4,1505.2,338.8,-0.8,1.8,2471.393,13.29,0.024,104.0
2023-04-13T01:28:03,42.805,6.029,0.009,-0.001,-0.004,105.0,105.0,102.0,13.4,1505.2,319.6,-0.7,1.8,2471.404,13.29,0.009,96.3
2023-04-13T01:31:03,42.805,6.029,0.047,-0.02,-0.032,104.0,104.0,102.0,13.4,1505.2,335.5,-0.8,1.8,2471.405,13.29,0.051,113.0
2023-04-13T01:34:03,42.805,6.029,0.03,-0.034,0.0,104.0,105.0,102.0,13.4,1505.2,335.2,-0.7,1.8,2471.401,13.29,0.045,138.6
2023-04-13T01:37:02,42.805,6.029,0.023,-0.008,-0.014,104.0,104.0,102.0,13.3,1505.2,330.6,-0.8,1.8,2471.411,13.29,0.024,109.2
2023-04-13T01:40:03,42.805,6.029,0.018,-0.009,-0.009,104.0,107.0,102.0,13.4,1505.2,328.8,-0.8,1.8,2471.405,13.29,0.02,116.6
2023-04-13T01:43:03,42.805,6.029,0.024,-0.011,0.005,104.0,105.0,103.0,13.4,1505.2,342.2,-0.7,1.8,2471.396,13.29,0.026,114.6
2023-04-13T01:46:03,42.805,6.029,0.017,-0.001,-0.015,105.0,103.0,101.0,13.4,1505.2,331.4,-0.8,1.8,2471.386,13.29,0.017,93.4
2023-04-13T01:49:03,42.805,6.029,0.005,0.0,0.028,106.0,104.0,103.0,13.4,1505.2,340.8,-0.8,1.8,2471.347,13.29,0.005,90.0
2023-04-13T01:52:02,42.805,6.029,0.023,-0.02,-0.007,105.0,107.0,102.0,13.4,1505.2,340.2,-0.8,1.8,2471.37,13.29,0.03,131.0
2023-04-13T01:55:03,42.805,6.029,0.019,0.0,-0.008,104.0,105.0,104.0,13.4,1505.2,329.2,-0.8,1.8,2471.341,13.29,0.019,90.0
2023-04-13T01:58:03,42.805,6.029,0.014,-0.023,-0.01,105.0,104.0,102.0,13.4,1505.2,327.1,-0.8,1.8,2471.394,13.29,0.026,148.7
2023-04-13T02:04:02,42.805,6.029,0.007,0.001,0.002,103.0,104.0,102.0,13.4,1505.2,338.7,-0.8,1.8,2471.408,13.29,0.007,81.9
2023-04-13T02:07:03,42.805,6.029,0.003,-0.015,0.001,103.0,102.0,103.0,13.4,1505.2,337.2,-0.8,1.8,2471.401,13.29,0.015,168.7
2023-04-13T02:10:03,42.805,6.029,0.022,-0.013,-0.012,105.0,105.0,102.0,13.4,1505.2,336.0,-0.8,1.8,2471.402,13.29,0.025,120.6
2023-04-13T02:13:03,42.805,6.029,0.036,-0.015,-0.027,104.0,104.0,102.0,13.4,1505.2,318.6,-0.7,1.8,2471.425,13.29,0.039,112.6
2023-04-13T02:16:03,42.805,6.029,-0.001,-0.004,-0.037,104.0,104.0,102.0,13.4,1505.2,337.8,-0.8,1.8,2471.39,13.29,0.004,194.0
2023-04-13T02:19:03,42.805,6.029,0.045,-0.003,-0.03,103.0,104.0,102.0,13.4,1505.2,317.4,-0.8,1.8,2471.403,13.29,0.045,93.8
2023-04-13T02:22:03,42.805,6.029,0.026,-0.004,-0.006,104.0,104.0,102.0,13.4,1505.2,334.3,-0.8,1.8,2471.423,13.29,0.026,98.7
2023-04-13T02:25:03,42.805,6.029,0.021,-0.016,-0.031,102.0,103.0,102.0,13.4,1505.2,333.9,-0.7,1.8,2471.366,13.29,0.026,127.3
2023-04-13T02:28:03,42.805,6.029,-0.003,0.005,-0.016,104.0,104.0,102.0,13.4,1505.2,327.3,-0.7,1.8,2471.385,13.29,0.005,329.0
2023-04-13T02:31:03,42.805,6.029,0.001,-0.013,-0.024,104.0,104.0,102.0,13.4,1505.2,337.3,-0.7,1.8,2471.389,13.29,0.013,175.6
2023-04-13T02:34:03,42.805,6.029,0.021,-0.004,-0.058,103.0,104.0,102.0,13.4,1505.2,318.0,-0.8,1.8,2471.354,13.29,0.021,100.8
2023-04-13T02:37:03,42.805,6.029,0.03,-0.023,-0.017,104.0,104.0,102.0,13.4,1505.2,327.3,-0.8,1.8,2471.367,13.29,0.037,127.5
2023-04-13T02:40:03,42.805,6.029,0.007,0.01,-0.016,104.0,104.0,102.0,13.4,1505.2,338.5,-0.8,1.8,2471.377,13.29,0.012,35.0
2023-04-13T02:43:03,42.805,6.029,0.022,-0.023,0.014,104.0,104.0,102.0,13.4,1505.2,338.3,-0.8,1.8,2471.376,13.29,0.031,136.3
2023-04-13T02:46:03,42.805,6.029,0.015,-0.007,-0.028,105.0,104.0,102.0,13.4,1505.2,325.6,-0.8,1.8,2471.363,13.29,0.016,115.0
2023-04-13T02:49:03,42.805,6.029,0.008,-0.002,0.003,104.0,104.0,102.0,13.4,1505.2,333.4,-0.8,1.8,2471.352,13.29,0.008,104.0
2023-04-13T02:52:03,42.805,6.029,0.011,-0.014,-0.027,104.0,104.0,102.0,13.3,1505.2,322.7,-0.8,1.8,2471.357,13.29,0.017,141.8
2023-04-13T02:55:03,42.805,6.029,0.026,0.01,-0.001,104.0,105.0,103.0,13.4,1505.2,323.8,-0.8,1.8,2471.396,13.29,0.027,69.0
2023-04-13T02:58:03,42.805,6.029,0.017,-0.03,-0.049,103.0,105.0,104.0,13.4,1505.2,333.9,-0.8,1.8,2471.372,13.29,0.034,150.5
2023-04-13T03:04:03,42.805,6.029,0.032,0.003,-0.011,104.0,105.0,102.0,13.4,1505.2,319.1,-0.8,1.8,2471.411,13.29,0.032,84.6
2023-04-13T03:07:03,42.805,6.029,-0.003,-0.023,-0.022,104.0,104.0,103.0,13.4,1505.2,335.2,-0.8,1.8,2471.414,13.29,0.023,187.4
2023-04-13T03:10:03,42.805,6.029,0.021,-0.016,-0.004,105.0,105.0,101.0,13.3,1505.2,340.2,-0.7,1.8,2471.405,13.29,0.026,127.3
2023-04-13T03:13:03,42.805,6.029,0.01,-0.001,0.002,105.0,104.0,103.0,13.3,1505.2,335.3,-0.8,1.8,2471.399,13.29,0.01,95.7
2023-04-13T03:16:03,42.805,6.029,0.031,-0.014,-0.002,103.0,104.0,102.0,13.4,1505.2,332.6,-0.8,1.8,2471.386,13.29,0.034,114.3
2023-04-13T03:19:03,42.805,6.029,0.0,0.009,0.005,105.0,105.0,102.0,13.3,1505.2,331.0,-0.7,1.8,2471.337,13.29,0.009,0.0
2023-04-13T03:22:03,42.805,6.029,0.038,-0.003,-0.033,104.0,106.0,102.0,13.4,1505.2,325.8,-0.8,1.8,2471.343,13.29,0.038,94.5
2023-04-13T03:25:03,42.805,6.029,0.017,-0.006,-0.038,105.0,105.0,101.0,13.4,1505.2,326.9,-0.7,1.8,2471.37,13.29,0.018,109.4
2023-04-13T03:28:03,42.805,6.029,0.028,-0.008,-0.016,104.0,105.0,102.0,13.4,1505.2,335.8,-0.8,1.8,2471.356,13.29,0.029,105.9
2023-04-13T03:31:03,42.805,6.029,0.007,0.0,-0.054,106.0,105.0,102.0,13.4,1505.2,336.8,-0.8,1.8,2471.348,13.29,0.007,90.0
2023-04-13T03:34:03,42.805,6.029,0.023,0.001,0.003,104.0,105.0,102.0,13.4,1505.2,318.3,-0.7,1.8,2471.37,13.29,0.023,87.5
2023-04-13T03:37:03,42.805,6.029,0.021,-0.012,-0.016,105.0,104.0,102.0,13.4,1505.2,331.5,-0.8,1.8,2471.364,13.29,0.024,119.7
2023-04-13T03:40:03,42.805,6.029,0.024,-0.018,-0.015,105.0,104.0,102.0,13.4,1505.2,331.8,-0.7,1.8,2471.371,13.29,0.03,126.9
2023-04-13T03:43:03,42.805,6.029,0.013,-0.019,-0.021,106.0,104.0,102.0,13.4,1505.2,339.1,-0.8,1.8,2471.354,13.29,0.023,145.6
2023-04-13T03:46:03,42.805,6.029,0.015,-0.024,-0.014,105.0,105.0,104.0,13.4,1505.2,335.8,-0.8,1.8,2471.357,13.29,0.028,148.0
2023-04-13T03:49:03,42.805,6.029,0.012,-0.014,0.001,105.0,105.0,102.0,13.4,1505.2,334.7,-0.8,1.8,2471.34,13.29,0.018,139.4
2023-04-13T03:52:03,42.805,6.029,0.023,-0.009,-0.008,105.0,103.0,103.0,13.4,1505.2,323.3,-0.8,1.8,2471.305,13.29,0.024,111.4
2023-04-13T03:55:03,42.805,6.029,0.021,-0.016,-0.02,105.0,104.0,103.0,13.4,1505.2,331.3,-0.7,1.8,2471.34,13.29,0.026,127.3
2023-04-13T03:58:03,42.805,6.029,0.009,-0.026,-0.04,104.0,104.0,102.0,13.4,1505.2,340.9,-0.8,1.8,2471.322,13.29,0.027,160.9
2023-04-13T04:04:03,42.805,6.029,0.017,-0.013,0.015,106.0,104.0,103.0,13.4,1505.2,319.2,-0.8,1.8,2471.378,13.29,0.021,127.4
2023-04-13T04:07:03,42.805,6.029,0.005,-0.007,-0.016,104.0,105.0,103.0,13.4,1505.2,330.1,-0.8,1.8,2471.398,13.29,0.008,144.5
2023-04-13T04:10:03,42.805,6.029,0.019,-0.016,-0.018,105.0,103.0,102.0,13.4,1505.2,326.3,-0.8,1.8,2471.363,13.29,0.024,130.1
2023-04-13T04:13:03,42.805,6.029,0.008,0.0,-0.02,105.0,104.0,102.0,13.4,1505.2,340.0,-0.7,1.8,2471.375,13.29,0.008,90.0
2023-04-13T04:16:03,42.805,6.029,0.026,-0.008,-0.014,106.0,104.0,102.0,13.4,1505.2,324.1,-0.8,1.8,2471.35,13.29,0.027,107.1
2023-04-13T04:19:03,42.805,6.029,0.016,0.0,-0.031,105.0,104.0,102.0,13.4,1505.2,335.5,-0.8,1.8,2471.355,13.29,0.016,90.0
2023-04-13T04:22:03,42.805,6.029,0.042,-0.008,-0.012,105.0,102.0,103.0,13.4,1505.2,329.7,-0.8,1.8,2471.352,13.29,0.042,100.8
2023-04-13T04:25:03,42.805,6.029,0.01,-0.018,-0.021,104.0,104.0,102.0,13.4,1505.2,343.3,-0.8,1.8,2471.315,13.29,0.02,150.9
2023-04-13T04:28:03,42.805,6.029,0.029,0.004,-0.002,104.0,104.0,102.0,13.4,1505.2,317.4,-0.8,1.8,2471.293,13.29,0.029,82.2
2023-04-13T04:31:03,42.805,6.029,0.024,-0.002,-0.02,104.0,103.0,102.0,13.4,1505.2,330.9,-0.8,1.8,2471.309,13.29,0.024,94.8
2023-04-13T04:34:03,42.805,6.029,0.021,-0.01,-0.001,105.0,105.0,101.0,13.4,1505.2,328.3,-0.8,1.8,2471.318,13.29,0.023,115.5
2023-04-13T04:37:03,42.805,6.029,0.036,-0.028,-0.007,103.0,104.0,101.0,13.3,1505.2,339.8,-0.8,1.8,2471.357,13.29,0.045,127.9
2023-04-13T04:40:03,42.805,6.029,0.015,-0.009,0.0,104.0,104.0,102.0,13.4,1505.2,335.9,-0.8,1.8,2471.35,13.29,0.017,121.0
2023-04-13T04:43:03,42.805,6.029,0.039,-0.012,-0.028,105.0,104.0,101.0,13.4,1505.2,321.1,-0.8,1.8,2471.335,13.29,0.04,107.1
2023-04-13T04:46:03,42.805,6.029,0.038,-0.01,-0.015,104.0,104.0,101.0,13.3,1505.2,328.2,-0.8,1.8,2471.338,13.29,0.039,104.7
2023-04-13T04:49:03,42.805,6.029,0.016,-0.001,-0.01,104.0,105.0,102.0,13.3,1505.2,340.8,-0.8,1.8,2471.312,13.29,0.016,93.6
2023-04-13T04:52:03,42.805,6.029,0.032,0.008,-0.048,105.0,103.0,104.0,13.4,1505.2,321.4,-0.7,1.8,2471.326,13.29,0.032,76.0
2023-04-13T04:55:03,42.805,6.029,0.021,-0.026,-0.024,105.0,104.0,102.0,13.4,1505.2,331.8,-0.7,1.8,2471.312,13.29,0.033,141.1
2023-04-13T04:58:03,42.805,6.029,0.02,-0.002,-0.014,104.0,104.0,102.0,13.4,1505.2,328.2,-0.8,1.8,2471.306,13.29,0.02,95.7
2023-04-13T05:04:03,42.805,6.029,0.011,0.004,-0.004,104.0,104.0,102.0,13.4,1505.2,336.6,-0.8,1.8,2471.394,13.28,0.011,70.0
2023-04-13T05:07:03,42.805,6.029,0.013,-0.016,-0.028,104.0,103.0,102.0,13.3,1505.2,343.9,-0.8,1.8,2471.365,13.29,0.02,140.9
2023-04-13T05:10:03,42.805,6.029,0.025,0.003,0.009,105.0,104.0,102.0,13.4,1505.2,319.4,-0.8,1.8,2471.353,13.29,0.025,83.2
2023-04-13T05:13:03,42.805,6.029,0.026,0.0,-0.01,104.0,104.0,102.0,13.4,1505.2,318.6,-0.7,1.8,2471.372,13.29,0.026,90.0
2023-04-13T05:16:03,42.805,6.029,0.01,-0.001,0.017,104.0,106.0,101.0,13.4,1505.2,323.6,-0.8,1.8,2471.374,13.29,0.01,95.7
2023-04-13T05:19:03,42.805,6.029,0.027,-0.018,-0.037,103.0,103.0,102.0,13.3,1505.2,333.0,-0.8,1.8,2471.331,13.29,0.032,123.7
2023-04-13T05:22:03,42.805,6.029,0.034,-0.007,-0.012,105.0,104.0,102.0,13.4,1505.2,330.5,-0.7,1.8,2471.358,13.29,0.034,101.6
2023-04-13T05:25:03,42.805,6.029,0.01,0.002,-0.005,106.0,106.0,101.0,13.4,1505.2,325.2,-0.8,1.8,2471.345,13.29,0.01,78.7
2023-04-13T05:28:03,42.805,6.029,0.018,0.002,-0.033,105.0,105.0,102.0,13.4,1505.2,334.2,-0.7,1.8,2471.351,13.29,0.018,83.7
2023-04-13T05:31:03,42.805,6.029,0.032,0.003,0.02,106.0,104.0,102.0,13.4,1505.2,326.0,-0.7,1.8,2471.33,13.29,0.032,84.6
2023-04-13T05:34:03,42.805,6.029,0.01,-0.021,-0.018,104.0,106.0,101.0,13.4,1505.2,336.5,-0.8,1.8,2471.312,13.29,0.023,154.5
2023-04-13T05:37:03,42.805,6.029,0.009,0.002,-0.008,105.0,105.0,101.0,13.4,1505.2,324.6,-0.8,1.8,2471.325,13.29,0.009,77.5
2023-04-13T05:40:03,42.805,6.029,0.04,0.001,-0.036,105.0,104.0,102.0,13.4,1505.2,328.6,-0.7,1.8,2471.322,13.29,0.04,88.6
2023-04-13T05:43:03,42.805,6.029,0.033,-0.004,0.007,105.0,105.0,103.0,13.4,1505.2,330.5,-0.8,1.8,2471.326,13.29,0.033,96.9
2023-04-13T05:46:03,42.805,6.029,0.018,-0.012,-0.012,103.0,105.0,103.0,13.4,1505.2,343.1,-0.7,1.8,2471.303,13.29,0.021,123.7
2023-04-13T05:49:03,42.805,6.029,0.018,-0.004,-0.031,104.0,105.0,102.0,13.4,1505.2,331.9,-0.8,1.8,2471.315,13.29,0.018,102.5
2023-04-13T05:52:03,42.805,6.029,0.009,-0.014,-0.007,104.0,104.0,102.0,13.4,1505.2,327.4,-0.8,1.8,2471.284,13.29,0.016,147.3
2023-04-13T05:55:03,42.805,6.029,0.016,-0.01,-0.009,105.0,103.0,101.0,13.4,1505.2,338.2,-0.8,1.9,2471.327,13.29,0.018,122.0
2023-04-13T05:58:03,42.805,6.029,0.013,0.014,0.005,106.0,104.0,101.0,13.3,1505.2,320.8,-0.8,1.8,2471.322,13.29,0.019,42.9
2023-04-13T06:04:03,42.805,6.029,0.013,-0.022,-0.035,105.0,104.0,101.0,13.4,1505.2,344.2,-0.8,1.8,2471.34,13.28,0.025,149.4
2023-04-13T06:07:03,42.805,6.029,0.012,-0.002,-0.031,105.0,104.0,102.0,13.4,1505.2,333.9,-0.8,1.8,2471.372,13.29,0.012,99.5
2023-04-13T06:10:03,42.805,6.029,0.03,-0.012,-0.001,105.0,105.0,102.0,13.4,1505.2,325.3,-0.7,1.8,2471.332,13.29,0.032,111.8
2023-04-13T06:13:03,42.805,6.029,0.03,-0.004,-0.027,105.0,105.0,103.0,13.4,1505.2,331.8,-0.8,1.8,2471.326,13.29,0.03,97.6
2023-04-13T06:16:03,42.805,6.029,-0.001,-0.003,-0.005,105.0,106.0,102.0,13.4,1505.2,331.5,-0.7,1.8,2471.302,13.29,0.003,198.4
2023-04-13T06:19:03,42.805,6.029,0.012,-0.018,-0.026,105.0,105.0,103.0,13.4,1505.2,334.4,-0.8,1.8,2471.279,13.29,0.021,146.3
2023-04-13T06:22:03,42.805,6.029,0.005,-0.017,-0.017,105.0,106.0,103.0,13.4,1505.2,341.2,-0.8,1.8,2471.295,13.29,0.017,163.6
2023-04-13T06:25:03,42.805,6.029,0.005,-0.005,-0.018,104.0,104.0,103.0,13.4,1505.2,317.3,-0.8,1.8,2471.335,13.29,0.007,135.0
2023-04-13T06:28:03,42.805,6.029,0.025,-0.004,-0.024,105.0,105.0,102.0,13.4,1505.2,337.2,-0.8,1.8,2471.337,13.29,0.025,99.1
2023-04-13T06:31:03,42.805,6.029,0.014,-0.003,-0.004,105.0,106.0,101.0,13.4,1505.2,325.1,-0.8,1.8,2471.298,13.29,0.014,102.1
2023-04-13T06:34:03,42.805,6.029,0.028,0.0,-0.002,107.0,105.0,103.0,13.4,1505.2,339.8,-0.8,1.8,2471.319,13.29,0.028,90.0
2023-04-13T06:37:03,42.805,6.029,0.015,-0.002,-0.021,104.0,105.0,102.0,13.4,1505.2,331.5,-0.7,1.8,2471.285,13.29,0.015,97.6
2023-04-13T06:40:03,42.805,6.029,0.022,-0.026,-0.03,106.0,105.0,103.0,13.4,1505.2,333.0,-0.7,1.8,2471.315,13.29,0.034,139.8
2023-04-13T06:43:03,42.805,6.029,0.008,0.001,-0.029,105.0,106.0,101.0,13.4,1505.2,321.6,-0.8,1.8,2471.289,13.29,0.008,82.9
2023-04-13T06:46:03,42.805,6.029,0.001,-0.013,-0.016,104.0,106.0,102.0,13.4,1505.2,321.3,-0.7,1.8,2471.273,13.29,0.013,175.6
2023-04-13T06:49:03,42.805,6.029,0.025,-0.011,0.005,105.0,104.0,102.0,13.4,1505.2,326.0,-0.8,1.8,2471.276,13.29,0.027,113.7
2023-04-13T06:52:03,42.805,6.029,0.012,-0.02,-0.03,105.0,105.0,101.0,13.3,1505.2,328.2,-0.8,1.8,2471.297,13.29,0.023,149.0
2023-04-13T06:55:03,42.805,6.029,0.021,-0.021,0.003,103.0,103.0,101.0,13.4,1505.2,341.2,-0.8,1.8,2471.285,13.29,0.029,135.0
2023-04-13T06:58:03,42.805,6.029,0.039,-0.019,-0.058,104.0,104.0,101.0,13.4,1505.2,324.2,-0.8,1.8,2471.286,13.29,0.043,116.0
2023-04-13T07:04:03,42.805,6.029,0.043,-0.017,-0.012,103.0,103.0,103.0,13.3,1505.2,336.0,-0.8,1.8,2471.316,13.28,0.046,111.6
2023-04-13T07:07:03,42.805,6.029,0.03,-0.003,-0.018,103.0,104.0,101.0,13.4,1505.2,320.0,-0.8,1.8,2471.372,13.28,0.03,95.7
2023-04-13T07:10:03,42.805,6.029,0.012,0.001,-0.04,104.0,103.0,102.0,13.4,1505.2,333.4,-0.8,1.8,2471.328,13.29,0.012,85.2
2023-04-13T07:13:03,42.805,6.029,0.009,-0.001,-0.048,104.0,103.0,100.0,13.4,1505.2,319.8,-0.8,1.8,2471.297,13.29,0.009,96.3
2023-04-13T07:16:03,42.805,6.029,0.002,-0.015,-0.016,103.0,104.0,101.0,13.4,1505.2,336.8,-0.8,1.8,2471.309,13.29,0.015,172.4
2023-04-13T07:19:03,42.805,6.029,0.01,0.007,-0.022,104.0,104.0,101.0,13.4,1505.2,331.0,-0.7,1.8,2471.332,13.29,0.012,55.0
2023-04-13T07:22:03,42.805,6.029,0.021,-0.01,-0.029,104.0,103.0,102.0,13.4,1505.2,334.9,-0.7,1.8,2471.336,13.29,0.023,115.5
2023-04-13T07:25:03,42.805,6.029,0.012,-0.002,-0.021,103.0,103.0,101.0,13.4,1505.2,320.4,-0.8,1.8,2471.312,13.29,0.012,99.5
2023-04-13T07:28:03,42.805,6.029,0.012,0.001,-0.047,103.0,104.0,101.0,13.4,1505.2,316.8,-0.8,1.8,2471.285,13.29,0.012,85.2
2023-04-13T07:31:03,42.805,6.029,0.018,-0.021,-0.016,102.0,104.0,100.0,13.4,1505.2,338.0,-0.8,1.8,2471.297,13.29,0.027,139.4
2023-04-13T07:34:03,42.805,6.029,0.03,-0.025,-0.026,103.0,103.0,101.0,13.4,1505.2,327.8,-0.8,1.8,2471.285,13.29,0.039,129.8
2023-04-13T07:37:03,42.805,6.029,0.033,-0.007,0.015,105.0,103.0,101.0,13.4,1505.2,335.7,-0.7,1.8,2471.288,13.29,0.033,102.0
2023-04-13T07:40:03,42.805,6.029,0.029,-0.003,-0.026,102.0,103.0,100.0,13.4,1505.2,328.8,-0.8,1.8,2471.318,13.29,0.029,95.9
2023-04-13T07:43:03,42.805,6.029,0.024,-0.02,-0.011,103.0,103.0,102.0,13.4,1505.2,340.8,-0.7,1.8,2471.295,13.29,0.031,129.8
2023-04-13T07:46:03,42.805,6.029,0.04,-0.016,-0.012,102.0,101.0,102.0,13.4,1505.2,316.8,-0.8,1.8,2471.242,13.29,0.043,111.8
2023-04-13T07:49:03,42.805,6.029,0.005,-0.003,-0.053,103.0,102.0,100.0,13.4,1505.2,318.0,-0.8,1.8,2471.258,13.29,0.005,121.0
2023-04-13T07:52:03,42.805,6.029,0.008,0.012,0.01,103.0,102.0,101.0,13.4,1505.2,321.6,-0.7,1.8,2471.278,13.29,0.014,33.7
2023-04-13T07:55:03,42.805,6.029,0.012,0.008,0.022,102.0,102.0,101.0,13.3,1505.2,324.9,-0.8,1.8,2471.285,13.29,0.014,56.3
2023-04-13T07:58:03,42.805,6.029,0.0,-0.01,-0.03,103.0,102.0,101.0,13.4,1505.2,330.8,-0.8,1.8,2471.298,13.29,0.01,180.0
2023-04-13T08:04:03,42.805,6.029,0.019,-0.031,-0.016,102.0,103.0,100.0,13.4,1505.2,336.6,-0.8,1.8,2471.331,13.28,0.036,148.5
2023-04-13T08:07:03,42.805,6.029,0.001,-0.007,-0.007,101.0,104.0,101.0,13.4,1505.2,334.8,-0.8,1.8,2471.331,13.28,0.007,171.9
2023-04-13T08:10:03,42.805,6.029,0.01,0.0,-0.03,103.0,103.0,101.0,13.4,1505.2,318.2,-0.7,1.8,2471.322,13.29,0.01,90.0
2023-04-13T08:13:03,42.805,6.029,-0.006,-0.011,-0.01,103.0,102.0,100.0,13.4,1505.2,331.1,-0.8,1.8,2471.311,13.29,0.012,208.6
2023-04-13T08:16:03,42.805,6.029,-0.001,-0.028,-0.016,102.0,102.0,101.0,13.4,1505.2,344.4,-0.8,1.8,2471.312,13.29,0.028,182.0
2023-04-13T08:19:03,42.805,6.029,0.016,-0.04,-0.009,102.0,102.0,101.0,13.4,1505.2,332.0,-0.8,1.8,2471.275,13.29,0.043,158.2
2023-04-13T08:22:03,42.805,6.029,0.011,-0.025,-0.036,104.0,102.0,100.0,13.4,1505.2,325.4,-0.8,1.8,2471.295,13.29,0.027,156.3
2023-04-13T08:25:03,42.805,6.029,0.018,-0.011,-0.018,102.0,102.0,101.0,13.4,1505.2,334.3,-0.7,1.8,2471.275,13.29,0.021,121.4
2023-04-13T08:28:03,42.805,6.029,0.0,-0.013,-0.021,103.0,103.0,101.0,13.4,1505.2,333.9,-0.8,1.8,2471.315,13.29,0.013,180.0
2023-04-13T08:31:03,42.805,6.029,0.013,-0.011,-0.01,103.0,103.0,100.0,13.4,1505.2,337.0,-0.8,1.8,2471.289,13.29,0.017,130.2
2023-04-13T08:34:03,42.805,6.029,0.04,-0.024,-0.021,103.0,101.0,102.0,13.4,1505.2,326.3,-0.8,1.8,2471.31,13.29,0.046,121.0
2023-04-13T08:37:03,42.805,6.029,0.021,0.015,-0.006,103.0,103.0,102.0,13.4,1505.2,328.7,-0.8,1.8,2471.292,13.29,0.025,54.5
2023-04-13T08:40:03,42.805,6.029,0.03,-0.021,-0.026,103.0,102.0,101.0,13.3,1505.2,328.1,-0.7,1.8,2471.296,13.29,0.036,125.0
2023-04-13T08:43:03,42.805,6.029,0.021,-0.002,-0.01,103.0,103.0,101.0,13.4,1505.2,315.6,-0.8,1.8,2471.314,13.29,0.021,95.4
2023-04-13T08:46:03,42.805,6.029,0.029,-0.004,-0.009,102.0,103.0,101.0,13.4,1505.2,326.8,-0.7,1.8,2471.273,13.29,0.029,97.8
2023-04-13T08:49:03,42.805,6.029,0.023,0.001,-0.049,105.0,103.0,101.0,13.4,1505.2,326.0,-0.8,1.8,2471.277,13.29,0.023,87.5
2023-04-13T08:52:03,42.805,6.029,0.012,-0.013,-0.03,103.0,102.0,101.0,13.4,1505.2,333.9,-0.7,1.8,2471.27,13.29,0.017,137.3
2023-04-13T08:55:03,42.805,6.029,0.012,-0.013,-0.029,104.0,103.0,101.0,13.4,1505.2,332.6,-0.8,1.8,2471.283,13.29,0.017,137.3
2023-04-13T08:58:03,42.805,6.029,0.014,0.001,-0.047,103.0,102.0,101.0,13.4,1505.2,324.5,-0.7,1.8,2471.295,13.29,0.014,85.9
2023-04-13T09:04:03,42.805,6.029,0.025,-0.002,-0.009,102.0,103.0,102.0,13.4,1505.2,343.4,-0.8,1.8,2471.333,13.28,0.025,94.6
2023-04-13T09:07:03,42.805,6.029,-0.003,-0.014,-0.031,101.0,102.0,102.0,13.4,1505.2,321.0,-0.8,1.8,2471.361,13.28,0.014,192.1
2023-04-13T09:10:03,42.805,6.029,0.01,-0.005,-0.011,103.0,103.0,101.0,13.4,1505.2,339.8,-0.8,1.8,2471.34,13.29,0.011,116.6
2023-04-13T09:13:03,42.805,6.029,0.021,-0.031,-0.033,104.0,102.0,101.0,13.3,1505.2,318.0,-0.8,1.8,2471.328,13.29,0.037,145.9
2023-04-13T09:16:03,42.805,6.029,0.028,-0.013,-0.032,103.0,101.0,101.0,13.4,1505.2,324.5,-0.8,1.8,2471.3,13.29,0.03,114.9
2023-04-13T09:19:03,42.805,6.029,-0.009,-0.015,-0.041,103.0,101.0,101.0,13.3,1505.2,322.9,-0.8,1.8,2471.348,13.29,0.017,211.0
2023-04-13T09:22:03,42.805,6.029,0.013,0.006,-0.001,104.0,103.0,100.0,13.3,1505.2,338.0,-0.8,1.8,2471.278,13.29,0.014,65.2
2023-04-13T09:25:03,42.805,6.029,0.019,0.01,-0.005,104.0,104.0,99.0,13.4,1505.2,322.5,-0.8,1.8,2471.287,13.29,0.021,62.2
2023-04-13T09:28:03,42.805,6.029,0.015,-0.004,-0.047,104.0,102.0,102.0,13.3,1505.2,334.9,-0.7,1.8,2471.27,13.29,0.015,104.9
2023-04-13T09:31:03,42.805,6.029,0.018,-0.01,-0.031,104.0,101.0,101.0,13.4,1505.2,329.2,-0.7,1.8,2471.346,13.29,0.02,119.1
2023-04-13T09:34:03,42.805,6.029,0.017,0.001,-0.016,102.0,102.0,101.0,13.4,1505.2,342.8,-0.8,1.8,2471.323,13.29,0.017,86.6
2023-04-13T09:37:03,42.805,6.029,-0.007,-0.004,-0.029,103.0,103.0,101.0,13.4,1505.2,324.5,-0.7,1.8,2471.261,13.29,0.008,240.3
2023-04-13T09:40:03,42.805,6.029,0.013,0.007,-0.001,103.0,103.0,102.0,13.3,1505.2,324.5,-0.8,1.8,2471.265,13.29,0.014,61.7
2023-04-13T09:43:03,42.805,6.029,0.011,-0.018,-0.014,104.0,103.0,102.0,13.4,1505.2,340.8,-0.8,1.8,2471.312,13.29,0.021,148.6
2023-04-13T09:46:03,42.805,6.029,0.005,-0.006,0.019,102.0,103.0,103.0,13.4,1505.2,336.3,-0.8,1.8,2471.3,13.29,0.007,140.2
2023-04-13T09:49:03,42.805,6.029,0.002,-0.007,-0.027,104.0,104.0,101.0,13.3,1505.2,341.5,-0.8,1.8,2471.287,13.29,0.007,164.1
2023-04-13T09:52:03,42.805,6.029,0.004,0.006,-0.018,102.0,103.0,101.0,13.4,1505.2,320.4,-0.8,1.8,2471.337,13.29,0.007,33.7
2023-04-13T09:55:03,42.805,6.029,-0.003,0.013,-0.042,103.0,103.0,102.0,13.4,1505.2,332.0,-0.8,1.8,2471.338,13.29,0.013,347.0
2023-04-13T09:58:03,42.805,6.029,-0.002,-0.007,-0.047,102.0,102.0,101.0,13.4,1505.2,320.3,-0.8,1.8,2471.331,13.29,0.007,195.9